Date String (YYYY-MM-DD hh:mm:ss) UTC,Instrument flags,Ambient pressure (hPa),Sample flow (lpm),Bypass flow (lpm),Sample temperature (°C),Ambient temperature (°C),ASC tube jacket temperature (°C),LED temperature (°C),Box temperature (°C),Sample RH (%),Span deviation,Mass concentration (μg/m³),Mass concentration (μg/m³),Mass concentration (μg/m³)
DateTimeUTC,F1_M11,P_M11,Q1_M11,Q2_M11,T1_M11,T2_M11,T3_M11,T4_M11,T5_M11,U1_M11,ZSPAN_M11,X0_M11,X2_M11,X1_M11
2022-09-11 00:00:00,,0835.0,5.00,0.00,28.5,26.8,00.0,37.3,30.3,27.5,0000.0,0004.78,0003.57,0003.31
2022-09-11 00:01:00,,0835.1,5.02,0.00,28.5,26.9,00.0,37.3,30.3,27.5,0000.0,0004.78,0003.55,0003.28
2022-09-11 00:02:00,,0835.1,5.00,0.00,28.5,26.9,00.0,37.3,30.3,27.4,0000.0,0004.71,0003.50,0003.25
2022-09-11 00:03:00,,0835.0,5.00,0.00,28.5,26.9,00.0,37.3,30.3,27.5,0000.0,0004.60,0003.47,0003.22
2022-09-11 00:04:00,,0835.0,5.00,0.00,28.5,26.9,00.0,37.3,30.3,27.5,0000.0,0004.45,0003.42,0003.19
2022-09-11 00:05:00,,0835.0,5.00,0.00,28.5,26.9,00.0,37.3,30.3,27.5,0000.0,0004.40,0003.40,0003.17
2022-09-11 00:06:00,,0835.0,5.00,0.00,28.5,26.8,00.0,37.3,30.3,27.5,0000.0,0004.53,0003.42,0003.17
2022-09-11 00:07:00,,0835.0,5.00,0.00,28.5,26.7,00.0,37.2,30.2,27.6,0000.0,0004.70,0003.45,0003.19
2022-09-11 00:08:00,,0835.0,5.00,0.00,28.4,26.7,00.0,37.2,30.2,27.6,0000.0,0004.67,0003.47,0003.23
2022-09-11 00:09:00,,0835.0,4.98,0.00,28.4,26.6,00.0,37.2,30.2,27.7,0000.0,0005.26,0003.51,0003.30
2022-09-11 00:10:00,,0835.0,5.00,0.00,28.4,26.7,00.0,37.2,30.2,27.7,0000.0,0005.77,0003.55,0003.34
2022-09-11 00:11:00,,0834.9,5.00,0.00,28.4,26.7,00.0,37.2,30.2,27.6,0000.0,0005.80,0003.58,0003.37
2022-09-11 00:12:00,,0835.0,5.00,0.00,28.4,26.8,00.0,37.2,30.2,27.6,0000.0,0005.80,0003.60,0003.41
2022-09-11 00:13:00,,0835.0,5.00,0.00,28.4,26.8,00.0,37.2,30.2,27.7,0000.0,0005.82,0003.63,0003.45
2022-09-11 00:14:00,,0835.0,5.00,0.00,28.4,26.8,00.0,37.2,30.2,27.7,0000.0,0005.91,0003.67,0003.49
2022-09-11 00:15:00,,0835.0,5.00,0.00,28.4,26.8,00.0,37.2,30.2,27.8,0000.0,0007.01,0003.70,0003.52
2022-09-11 00:16:00,,0835.0,5.01,0.00,28.4,26.9,00.0,37.2,30.2,27.8,0000.0,0007.00,0003.71,0003.53
2022-09-11 00:17:00,,0834.9,5.00,0.00,28.4,26.9,00.0,37.2,30.2,27.7,0000.0,0006.92,0003.70,0003.53
2022-09-11 00:18:00,,0835.0,4.99,0.00,28.4,26.8,00.0,37.2,30.2,27.8,0000.0,0006.82,0003.69,0003.53
2022-09-11 00:19:00,,0835.0,5.01,0.00,28.4,26.8,00.0,37.2,30.2,27.8,0000.0,0006.76,0003.68,0003.53
2022-09-11 00:20:00,,0835.0,4.99,0.00,28.4,26.7,00.0,37.2,30.2,27.8,0000.0,0006.32,0003.71,0003.55
2022-09-11 00:21:00,,0835.0,5.00,0.00,28.4,26.6,00.0,37.1,30.2,27.9,0000.0,0005.94,0003.76,0003.60
2022-09-11 00:22:00,,0835.0,5.00,0.00,28.4,26.6,00.0,37.1,30.2,28.0,0000.0,0006.02,0003.81,0003.64
2022-09-11 00:23:00,,0835.0,5.00,0.00,28.4,26.6,00.0,37.1,30.2,28.8,0000.0,0006.06,0003.84,0003.68
2022-09-11 00:24:00,,0835.0,5.00,0.00,28.3,26.6,00.0,37.1,30.1,28.6,0000.0,0006.15,0003.89,0003.72
2022-09-11 00:25:00,,0835.0,5.00,0.00,28.3,26.5,00.0,37.1,30.1,28.3,0000.0,0006.22,0003.93,0003.76
2022-09-11 00:26:00,,0835.0,5.00,0.00,28.3,26.6,00.0,37.1,30.1,28.3,0000.0,0005.33,0004.01,0003.84
2022-09-11 00:27:00,,0835.0,5.00,0.00,28.3,26.5,00.0,37.1,30.1,28.2,0000.0,0005.52,0004.10,0003.92
2022-09-11 00:28:00,,0834.9,5.00,0.00,28.3,26.5,00.0,37.1,30.0,28.1,0000.0,0005.65,0004.14,0003.95
2022-09-11 00:29:00,,0834.9,5.00,0.00,28.3,26.5,00.0,37.0,30.0,28.2,0000.0,0005.68,0004.17,0003.98
2022-09-11 00:30:00,,0835.0,5.00,0.00,28.3,26.5,00.0,37.0,30.1,28.2,0000.0,0005.72,0004.20,0004.00
2022-09-11 00:31:00,,0834.9,5.01,0.00,28.3,26.5,00.0,37.0,30.1,28.1,0000.0,0005.65,0004.15,0003.95
2022-09-11 00:32:00,,0835.0,5.00,0.00,28.2,26.4,00.0,37.0,30.0,28.0,0000.0,0005.43,0004.05,0003.86
2022-09-11 00:33:00,,0834.9,5.00,0.00,28.2,26.4,00.0,37.0,30.0,27.9,0000.0,0005.20,0003.94,0003.76
2022-09-11 00:34:00,,0835.0,5.00,0.00,28.2,26.4,00.0,37.0,30.0,27.8,0000.0,0005.04,0003.85,0003.67
2022-09-11 00:35:00,,0835.0,5.00,0.00,28.2,26.3,00.0,37.0,30.0,27.8,0000.0,0004.85,0003.74,0003.57
2022-09-11 00:36:00,,0834.9,5.01,0.00,28.2,26.3,00.0,37.0,29.9,27.9,0000.0,0004.74,0003.65,0003.46
2022-09-11 00:37:00,,0834.9,5.00,0.00,28.1,26.3,00.0,36.9,29.9,28.0,0000.0,0004.49,0003.51,0003.32
2022-09-11 00:38:00,,0834.9,4.98,0.00,28.1,26.3,00.0,36.9,29.9,28.0,0000.0,0004.24,0003.35,0003.17
2022-09-11 00:39:00,,0834.9,5.00,0.00,28.1,26.2,00.0,36.9,29.9,28.1,0000.0,0003.92,0003.22,0003.00
2022-09-11 00:40:00,,0834.8,5.02,0.00,28.1,26.3,00.0,36.9,29.9,28.1,0000.0,0003.71,0003.11,0002.83
2022-09-11 00:41:00,,0834.8,5.00,0.00,28.1,26.3,00.0,36.9,29.9,28.1,0000.0,0003.51,0002.89,0002.62
2022-09-11 00:42:00,,0834.8,5.00,0.00,28.1,26.2,00.0,36.9,29.9,28.0,0000.0,0003.40,0002.78,0002.51
2022-09-11 00:43:00,,0834.8,5.00,0.00,28.1,26.2,00.0,36.9,29.9,28.0,0000.0,0003.38,0002.73,0002.45
2022-09-11 00:44:00,,0834.9,5.00,0.00,28.1,26.1,00.0,36.9,29.8,28.0,0000.0,0003.36,0002.72,0002.43
2022-09-11 00:45:00,,0834.9,5.00,0.00,28.0,26.1,00.0,36.8,29.8,28.1,0000.0,0003.37,0002.72,0002.43
2022-09-11 00:46:00,,0834.9,5.00,0.00,28.0,26.2,00.0,36.8,29.8,28.3,0000.0,0003.35,0002.72,0002.44
2022-09-11 00:47:00,,0834.8,5.00,0.00,28.0,26.2,00.0,36.8,29.8,28.3,0000.0,0003.30,0002.69,0002.44
2022-09-11 00:48:00,,0834.9,4.98,0.00,28.0,26.3,00.0,36.8,29.8,28.2,0000.0,0003.71,0002.71,0002.44
2022-09-11 00:49:00,,0834.8,5.00,0.00,28.0,26.3,00.0,36.8,29.8,28.3,0000.0,0003.75,0002.72,0002.45
2022-09-11 00:50:00,,0834.8,5.00,0.00,28.0,26.2,00.0,36.8,29.8,28.3,0000.0,0003.73,0002.71,0002.44
2022-09-11 00:51:00,,0834.8,5.00,0.00,28.0,26.2,00.0,36.8,29.8,28.4,0000.0,0003.78,0002.69,0002.41
2022-09-11 00:52:00,,0834.8,5.00,0.00,28.0,26.3,00.0,36.8,29.8,28.4,0000.0,0003.77,0002.70,0002.42
2022-09-11 00:53:00,,0834.8,5.01,0.00,28.0,26.3,00.0,36.8,29.8,28.6,0000.0,0003.76,0002.68,0002.41
2022-09-11 00:54:00,,0834.8,5.01,0.00,28.0,26.3,00.0,36.8,29.8,29.3,0000.0,0003.73,0002.68,0002.42
2022-09-11 00:55:00,,0834.8,5.00,0.00,28.0,26.4,00.0,36.8,29.8,28.9,0000.0,0003.68,0002.68,0002.44
2022-09-11 00:56:00,,0834.8,5.01,0.00,28.0,26.4,00.0,36.8,29.8,28.6,0000.0,0003.66,0002.69,0002.46
2022-09-11 00:57:00,,0834.8,5.00,0.00,28.0,26.4,00.0,36.7,29.8,28.5,0000.0,0003.62,0002.68,0002.46
2022-09-11 00:58:00,,0834.8,5.00,0.00,28.0,26.4,00.0,36.7,29.8,28.5,0000.0,0003.63,0002.68,0002.46
2022-09-11 00:59:00,,0834.7,5.00,0.00,28.0,26.4,00.0,36.7,29.9,28.5,0000.0,0003.33,0002.71,0002.47
